Location: Cadenet
(43.7345°N, 5.3750°E)
Time: 00:59:42
(UTC+00:00)

Cosmos 1802 Rocket - Pass Details

Date: 18 February 2020
Orbit: 954 x 1011 km, 82.9° (Epoch: 05 April)

Event Time Altitude Azimuth Distance (km) Brightness Sun altitude
Rises 05:53:54 0° 346° (NNW) 3,753 6.8 -7.9°
Reaches altitude 10° 05:56:33 10° 340° (NNW) 2,801 6.1 -7.4°
Maximum altitude 06:02:36 45° 271° (W) 1,352 4.4 -6.3°
Drops below altitude 10° 06:08:37 10° 200° (SSW) 2,777 6.3 -5.3°
Sets 06:11:14 0° 195° (SSW) 3,718 7.0 -4.8°
